Temp
54 54 55 57 58 57 57 58 51 58 58 65 67 68 69 66 64 63 61 60 61 61 62 63 62 62 61 61 60 60 58 59 57 56 56 55 54 53 53 52 52 53 51 51
48 52 53 52 58 59 59 60 57 60 58 70 69 66 65 62 61 60 60 60 61 62 63 62 62 61 61 60 59 59 58 57 57 55 54 53 53 52 52 52 52 52 51 49
47 47 48 41 52 58 59 62 59 54 63 65 62 62 64 63 61 60 61 61 61 62 62 62 61 61 60 60 59 57 56 56 54 54 52 53 53 53 52 51 52 51 51 49
43 39 35 57 59 58 59 62 64 63 63 64 64 64 64 66 64 61 63 62 63 63 63 60 63 61 62 61 58 56 55 54 54 53 52 53 53 52 52 51 50 50 50 49
39 44 51 59 55 55 54 59 64 63 65 63 59 59 63 64 66 65 64 65 65 65 64 63 61 62 59 57 57 55 53 54 54 53 53 53 52 51 52 51 50 50 49 47
40 38 36 53 57 59 59 52 62 61 61 58 58 52 65 66 65 64 65 65 64 64 63 61 61 59 56 56 55 53 53 53 53 54 52 52 52 51 51 50 49 49 46 45
41 39 48 58 58 59 46 51 62 61 62 59 57 64 64 63 65 65 65 64 63 60 60 59 59 57 54 54 52 53 52 52 53 53 52 52 51 51 50 49 48 44 41 42
39 36 37 58 56 50 59 61 61 62 63 60 63 62 60 59 59 61 62 61 59 58 55 53 56 54 54 52 54 52 51 51 51 50 49 49 49 49 49 47 45 41 35 38
50 53 59 61 62 65 61 60 62 62 65 63 61 62 60 58 58 59 60 59 55 51 50 51 52 53 52 52 50 49 49 48 48 48 47 48 47 47 47 46 43 41 40 39
49 58 59 61 64 64 64 62 65 66 64 63 61 62 60 58 56 56 57 54 52 47 47 45 48 48 49 49 48 47 45 46 46 45 42 45 47 47 46 44 43 41 40 40
52 58 61 62 63 63 65 65 64 65 63 61 60 60 59 55 54 54 47 46 45 43 44 48 48 47 48 46 46 44 44 43 44 43 41 40 41 46 44 46 44 42 42 41
50 63 59 61 64 63 61 63 63 60 60 57 56 56 55 52 50 48 46 41 41 45 43 43 44 45 45 45 43 41 40 42 44 43 42 40 40 40 36 36 34 34 34 34
57 60 59 61 62 60 59 56 57 56 56 53 53 53 49 42 39 38 39 41 44 44 44 42 41 41 43 43 41 39 40 42 42 41 42 41 40 36 37 37 34 34 34 34
57 57 57 56 53 54 53 52 50 51 50 48 46 44 41 37 36 38 39 42 42 41 40 39 40 41 43 42 41 41 41 36 41 43 43 41 40 38 38 36 35 36 34 34
52 55 54 53 50 48 50 51 46 40 38 37 38 37 38 39 42 43 44 43 41 39 40 41 42 43 44 44 44 42 41 43 42 40 39 39 38 39 39 37 35 36 37 33
50 51 49 44 43 42 41 39 37 36 37 37 40 41 44 44 43 42 43 42 36 38 41 37 36 41 45 45 43 43 43 36 35 37 36 37 38 39 38 37 35 36 36 38
47 43 42 41 41 39 37 38 38 38 41 42 43 42 43 42 38 40 40 39 35 33 34 34 36 44 43 42 43 44 44 42 36 39 39 35 35 35 36 36 36 37 37 35
48 46 44 39 38 38 38 41 42 42 41 41 34 33 33 32 34 35 35 34 33 32 34 36 37 40 42 44 43 43 42 41 40 37 38 37 37 37 36 36 36 35 36 36
45 42 43 45 45 43 41 39 35 36 34 34 33 33 33 33 33 34 34 32 32 32 40 40 35 34 39 40 38 41 39 37 35 36 36 35 34 34 34 34 34 34 35 35
46 46 45 43 40 35 36 34 34 38 39 34 32 33 33 34 33 32 32 31 35 39 39 40 38 38 38 40 35 39 37 34 35 35 34 35 33 33 32 32 33 33 33 33
43 40 36 34 34 33 32 32 33 33 36 32 31 31 31 32 33 32 33 39 43 40 40 37 38 41 43 41 41 36 36 34 34 34 33 33 32 32 32 32 32 32 32 33
43 38 34 34 33 34 33 33 33 32 32 31 31 31 31 32 32 33 34 34 40 35 37 37 38 38 39 35 38 35 35 33 34 34 33 33 33 32 33 32 32 32 32 32
40 38 35 32 32 33 32 31 31 31 31 31 31 31 32 32 33 30 30 37 35 34 34 34 34 34 34 33 33 33 32 33 34 32 31 31 32 32 32 32 32 32 31 32
37 35 32 31 31 31 31 33 32 33 31 32 32 31 32 32 32 37 36 35 33 33 33 34 34 33 32 33 33 32 33 32 30 29 28 27 27 27 27 27 27 28 28 28
32 31 31 31 32 32 31 31 32 32 30 31 31 32 31 32 29 31 32 31 31 32 32 32 29 29 29 28 29 29 29 26 25 26 24 23 23 22 23 23 23 23 22 23
32 32 32 30 30 30 29 29 27 29 28 27 28 28 28 29 30 29 29 29 27 27 25 25 22 23 23 23 21 20 22 22 22 21 20 20 20 20 19 20 20 21 21 21
29 29 30 30 29 27 25 25 24 23 24 23 22 25 26 25 25 25 24 24 23 22 22 21 19 17 17 18 16 17 17 18 15 16 16 16 16 16 16 16 16 17 18 19
MSLP
1012.67 1012.69 1012.42 1011.91 1011.52 1011.57 1011.38 1011.12 1010.96 1009.92 1009.87 1009.75 1010.20 1010.65 1011.26 1012.46 1013.56 1014.45 1015.38 1016.34 1017.16 1017.92 1018.67 1019.41 1020.13 1020.83 1021.52 1021.97 1022.50 1023.01 1023.31 1023.45 1023.74 1024.17 1024.33 1024.44 1024.53 1024.49 1024.42 1024.35 1024.09 1023.79 1023.90 1023.80
1013.61 1013.56 1013.17 1012.48 1011.80 1011.38 1011.17 1010.88 1010.65 1010.02 1009.46 1009.66 1010.40 1011.23 1011.69 1012.58 1013.47 1014.21 1015.07 1015.97 1016.79 1017.45 1018.03 1018.74 1019.54 1020.31 1020.87 1021.43 1022.10 1022.67 1022.88 1023.16 1023.47 1023.76 1023.96 1024.03 1024.01 1024.06 1023.94 1023.74 1023.55 1023.31 1023.29 1023.56
1014.31 1014.38 1013.88 1013.14 1011.43 1010.94 1010.57 1010.30 1010.17 1009.60 1009.46 1010.11 1010.85 1011.31 1011.64 1012.35 1013.21 1013.83 1014.57 1015.40 1016.03 1016.63 1017.45 1018.29 1019.15 1019.86 1020.36 1020.99 1021.76 1022.22 1022.52 1022.88 1023.12 1023.33 1023.46 1023.40 1023.39 1023.37 1023.28 1023.16 1023.07 1023.01 1022.90 1023.27
1015.25 1015.25 1013.75 1011.49 1011.56 1011.16 1010.58 1010.25 1009.93 1009.83 1010.10 1010.66 1010.95 1011.43 1011.96 1012.23 1012.82 1013.48 1014.06 1014.69 1015.36 1016.24 1017.14 1018.16 1018.75 1019.55 1020.04 1020.72 1021.37 1021.82 1022.15 1022.32 1022.59 1022.78 1022.82 1022.75 1022.67 1022.69 1022.67 1022.68 1022.66 1022.70 1022.63 1022.92
1015.71 1014.59 1012.62 1011.32 1011.55 1011.45 1010.98 1009.84 1009.87 1009.92 1010.16 1011.10 1012.05 1012.16 1011.70 1012.19 1012.52 1012.86 1013.61 1014.34 1015.05 1015.89 1016.72 1017.59 1018.41 1019.14 1020.03 1020.63 1021.11 1021.55 1021.82 1022.00 1022.08 1022.20 1022.17 1022.09 1021.99 1022.07 1022.18 1022.21 1022.21 1022.18 1022.52 1022.83
1015.69 1014.67 1012.85 1011.69 1011.85 1011.94 1011.67 1010.49 1010.55 1010.72 1010.85 1011.52 1012.09 1011.73 1010.71 1011.57 1012.29 1012.85 1013.46 1014.18 1014.88 1015.67 1016.55 1017.35 1018.17 1019.00 1019.89 1020.20 1020.80 1021.22 1021.54 1021.67 1021.79 1021.75 1021.66 1021.52 1021.49 1021.55 1021.65 1021.78 1021.90 1022.06 1022.44 1022.95
1015.09 1014.26 1012.72 1011.98 1012.23 1012.29 1011.76 1011.40 1011.12 1011.26 1011.29 1011.67 1011.78 1011.32 1011.86 1012.19 1012.31 1012.92 1013.47 1014.22 1014.95 1015.88 1016.45 1017.36 1018.18 1018.93 1019.60 1020.20 1020.61 1021.05 1021.50 1021.63 1021.61 1021.43 1021.23 1021.12 1021.06 1021.11 1021.07 1021.18 1021.47 1022.02 1022.48 1022.97
1014.94 1013.96 1012.77 1012.28 1012.47 1012.17 1011.60 1011.39 1011.50 1011.56 1011.59 1011.84 1011.77 1012.11 1012.61 1012.88 1013.15 1013.41 1013.77 1014.78 1015.62 1016.39 1017.19 1017.96 1018.99 1019.81 1019.59 1020.07 1020.57 1021.16 1021.25 1021.26 1021.26 1021.16 1021.09 1020.99 1020.78 1020.68 1020.69 1021.03 1021.28 1021.88 1022.47 1022.76
1013.60 1012.43 1012.00 1012.09 1011.60 1011.68 1011.93 1011.82 1011.68 1011.84 1011.68 1012.04 1012.07 1012.13 1012.73 1013.24 1013.63 1014.16 1014.78 1015.62 1016.49 1017.41 1018.63 1019.21 1019.60 1019.90 1019.90 1020.25 1020.93 1021.07 1021.10 1021.08 1021.05 1021.10 1020.97 1020.72 1020.44 1020.31 1020.46 1020.73 1021.03 1021.42 1021.76 1021.99
1013.24 1011.79 1011.67 1011.69 1011.68 1011.72 1011.84 1011.87 1011.75 1011.72 1011.81 1011.99 1012.06 1012.20 1012.83 1013.69 1014.44 1015.05 1015.93 1016.91 1017.65 1018.22 1019.08 1019.96 1020.32 1020.72 1020.78 1020.93 1021.24 1021.34 1021.23 1021.14 1021.12 1020.86 1020.94 1020.51 1020.10 1020.19 1020.26 1020.45 1020.72 1021.01 1021.27 1021.31
1012.42 1011.73 1011.51 1011.35 1011.55 1011.72 1011.76 1011.88 1011.93 1011.86 1012.02 1012.32 1012.59 1012.77 1013.43 1014.56 1015.43 1016.25 1017.55 1018.22 1018.92 1019.43 1019.92 1020.11 1020.80 1021.17 1021.37 1021.36 1021.45 1021.36 1021.32 1021.26 1021.04 1020.68 1020.64 1020.76 1020.62 1020.03 1020.11 1020.27 1020.43 1020.63 1020.77 1021.12
1011.66 1011.27 1011.54 1011.42 1011.68 1012.16 1012.24 1012.18 1012.39 1012.61 1012.60 1013.26 1013.42 1013.72 1014.61 1016.04 1017.38 1018.09 1018.79 1019.74 1020.06 1020.42 1020.90 1021.09 1021.30 1021.34 1021.51 1021.58 1021.41 1021.26 1021.25 1021.09 1020.72 1020.40 1020.31 1020.43 1020.27 1020.11 1020.14 1020.41 1020.61 1020.89 1021.12 1021.34
1012.37 1012.43 1012.41 1012.44 1012.71 1013.08 1013.17 1013.70 1013.81 1014.00 1014.21 1014.79 1015.34 1015.89 1016.73 1017.81 1019.01 1019.58 1020.13 1020.66 1020.94 1021.22 1021.16 1021.37 1021.38 1021.40 1021.37 1021.48 1021.45 1021.28 1021.07 1020.80 1020.47 1020.03 1019.92 1019.85 1019.82 1019.95 1019.75 1019.98 1020.28 1020.65 1020.78 1020.87
1013.54 1013.28 1012.86 1013.58 1014.02 1014.53 1014.76 1015.40 1015.82 1016.20 1016.72 1017.16 1017.65 1018.50 1019.29 1019.82 1020.02 1020.40 1020.78 1021.11 1021.27 1021.38 1021.49 1021.67 1021.56 1021.21 1021.16 1021.16 1021.12 1021.01 1020.89 1020.58 1020.18 1019.76 1019.52 1019.42 1019.39 1019.45 1019.49 1019.57 1019.53 1019.71 1019.91 1020.12
1014.71 1014.56 1014.71 1015.30 1015.76 1016.15 1016.28 1016.64 1017.37 1018.24 1018.97 1019.40 1019.69 1019.84 1020.24 1020.46 1020.49 1020.70 1020.80 1020.91 1021.41 1021.35 1021.13 1021.14 1020.97 1020.72 1020.71 1020.64 1020.42 1020.30 1020.22 1019.84 1019.68 1019.66 1019.53 1019.27 1019.23 1019.04 1018.94 1018.95 1019.01 1018.94 1019.01 1019.38
1015.91 1015.85 1016.17 1016.61 1017.22 1017.79 1018.18 1018.72 1019.13 1019.77 1020.27 1020.55 1020.44 1020.37 1020.26 1020.36 1020.59 1020.67 1020.68 1020.88 1021.20 1020.89 1020.77 1020.64 1020.61 1020.43 1020.30 1020.12 1019.92 1019.64 1019.40 1019.50 1019.84 1019.70 1019.31 1018.86 1018.69 1018.41 1018.29 1018.30 1018.31 1018.22 1018.17 1018.14
1016.33 1016.88 1017.51 1017.96 1018.56 1019.21 1019.64 1020.06 1020.34 1020.57 1020.64 1020.64 1020.64 1020.63 1020.50 1020.59 1020.84 1020.91 1020.99 1021.02 1021.05 1020.90 1020.73 1020.52 1020.05 1019.80 1019.67 1019.48 1019.17 1018.89 1018.63 1018.61 1018.82 1018.84 1018.48 1018.46 1018.21 1018.01 1017.83 1017.66 1017.41 1017.24 1017.15 1017.45
1017.70 1018.06 1018.59 1019.18 1019.64 1020.03 1020.39 1020.63 1020.81 1020.93 1021.09 1021.28 1021.45 1021.37 1021.18 1021.12 1020.96 1020.91 1021.00 1020.95 1020.74 1020.39 1019.89 1019.58 1019.30 1019.08 1018.94 1018.60 1018.46 1018.26 1018.08 1017.98 1017.98 1017.97 1017.76 1017.60 1017.47 1017.31 1017.09 1016.87 1016.60 1016.42 1016.37 1016.51
1019.10 1019.41 1019.80 1020.06 1020.40 1020.83 1021.15 1021.44 1021.68 1021.63 1021.64 1021.64 1021.61 1021.60 1021.48 1021.48 1021.23 1021.00 1020.92 1020.75 1020.32 1019.82 1018.72 1018.71 1018.71 1018.66 1018.26 1018.02 1018.09 1017.84 1017.63 1017.55 1017.51 1017.22 1017.02 1016.85 1016.75 1016.63 1016.39 1016.16 1015.86 1015.65 1015.55 1015.60
1019.82 1020.21 1020.59 1021.05 1021.51 1021.75 1021.96 1022.12 1022.03 1021.81 1021.81 1021.96 1021.97 1021.71 1021.61 1021.36 1021.34 1021.12 1020.88 1020.54 1019.75 1019.25 1018.61 1018.31 1018.23 1017.97 1017.60 1017.34 1017.34 1017.16 1016.98 1016.93 1016.72 1016.45 1016.23 1015.94 1015.80 1015.72 1015.58 1015.40 1015.18 1014.92 1014.78 1014.78
1020.61 1021.08 1021.46 1021.77 1022.10 1022.42 1022.57 1022.63 1022.53 1022.43 1022.46 1022.48 1022.39 1022.29 1022.00 1021.58 1021.33 1021.06 1020.37 1019.47 1018.61 1018.41 1018.28 1018.15 1017.92 1017.31 1016.77 1016.54 1016.33 1016.18 1016.11 1016.07 1016.01 1015.77 1015.45 1015.11 1014.99 1014.90 1014.72 1014.59 1014.43 1014.25 1014.11 1014.04
1021.12 1021.59 1021.95 1022.20 1022.48 1022.77 1023.05 1023.07 1022.99 1022.92 1022.88 1022.79 1022.74 1022.57 1022.15 1021.73 1021.32 1020.79 1020.51 1019.86 1018.94 1018.95 1018.77 1018.15 1017.47 1016.88 1016.46 1016.15 1015.76 1015.46 1015.17 1015.11 1015.21 1015.12 1014.83 1014.44 1014.22 1014.12 1014.02 1014.05 1013.98 1013.85 1013.70 1013.61
1021.81 1022.25 1022.67 1022.98 1023.32 1023.53 1023.79 1023.89 1023.79 1023.70 1023.47 1023.31 1023.01 1022.77 1022.39 1022.02 1021.58 1020.85 1019.94 1019.76 1019.68 1019.20 1018.75 1017.96 1017.28 1016.67 1016.09 1015.61 1015.16 1014.76 1014.57 1014.36 1014.55 1014.65 1014.44 1014.20 1013.66 1013.83 1013.85 1013.80 1013.76 1013.70 1013.57 1013.37
1022.53 1023.05 1023.52 1023.93 1024.17 1024.21 1024.10 1024.10 1024.10 1023.92 1023.83 1023.49 1023.26 1023.09 1022.48 1021.75 1021.48 1020.99 1020.52 1019.88 1019.31 1018.71 1018.03 1017.24 1016.43 1015.86 1015.29 1014.66 1014.16 1013.88 1013.55 1013.78 1014.36 1014.77 1014.91 1014.94 1014.89 1014.84 1014.70 1014.61 1014.43 1014.32 1014.10 1013.75
1023.59 1024.01 1024.30 1024.46 1024.51 1024.57 1024.71 1024.78 1024.46 1024.25 1024.20 1023.91 1023.69 1023.20 1023.02 1022.76 1022.37 1021.29 1020.88 1020.34 1019.55 1018.83 1017.81 1017.06 1016.56 1015.99 1015.24 1014.96 1014.57 1014.52 1014.37 1014.06 1014.95 1015.40 1015.55 1015.63 1015.71 1015.68 1015.50 1015.34 1015.17 1014.89 1014.66 1014.22
1024.25 1024.47 1024.82 1025.34 1025.51 1025.58 1025.69 1025.52 1025.23 1024.82 1024.65 1024.26 1024.06 1023.76 1023.51 1023.09 1022.51 1021.95 1021.28 1020.72 1020.21 1019.57 1019.13 1018.74 1018.43 1017.73 1017.19 1016.96 1016.72 1016.70 1016.83 1016.08 1016.23 1016.67 1016.26 1016.34 1016.50 1016.37 1016.16 1015.89 1015.55 1015.11 1014.67 1014.15
1025.32 1025.55 1025.58 1025.80 1026.27 1026.44 1026.53 1026.28 1025.87 1025.58 1025.40 1025.24 1024.89 1024.37 1023.91 1023.49 1023.03 1022.60 1022.23 1021.64 1021.20 1020.79 1020.40 1020.11 1019.79 1019.44 1018.97 1018.64 1018.51 1018.17 1018.06 1017.98 1018.06 1017.86 1017.55 1017.22 1017.17 1017.03 1016.80 1016.48 1015.99 1015.42 1014.80 1014.07
Wind_Speed
1 1 3 4 8 13 15 12 8 7 11 7 6 8 8 9 12 15 17 18 18 18 16 16 15 12 10 10 8 6 5 6 5 5 6 6 7 8 9 9 8 7 7 6
4 2 2 6 10 11 15 14 15 16 19 12 6 5 8 11 14 16 16 18 18 18 17 16 15 12 10 9 8 6 6 6 6 6 7 7 8 9 10 9 9 9 9 7
3 1 2 6 15 17 11 11 12 12 11 4 6 9 10 12 14 16 16 18 19 18 16 14 14 11 11 9 8 7 6 6 7 7 8 9 8 10 10 9 9 10 10 7
1 2 4 2 2 2 12 15 13 16 8 7 5 3 5 9 13 15 17 18 17 14 13 13 13 11 9 8 7 6 6 7 7 8 9 10 9 10 9 8 8 8 8 6
3 5 6 9 4 4 5 5 3 12 10 3 2 4 10 11 14 15 15 14 13 12 12 13 12 11 10 9 7 6 6 6 8 8 10 10 11 10 10 8 8 8 6 6
3 3 4 3 3 0 2 6 6 2 2 6 5 4 6 9 13 13 13 12 12 12 11 12 11 11 11 8 6 6 6 7 7 8 10 11 11 11 10 8 7 5 5 5
4 4 6 1 2 3 3 4 3 2 3 7 8 8 5 1 8 11 12 13 12 13 12 11 11 11 9 6 6 5 5 6 8 9 11 11 11 11 10 9 6 4 4 5
3 3 5 5 5 3 4 2 4 4 5 9 12 5 6 4 3 8 11 10 11 10 9 8 8 6 6 5 3 5 6 7 9 9 8 8 11 11 8 7 5 5 4 5
6 1 3 8 6 3 4 7 8 8 9 8 11 12 9 7 6 7 10 10 10 10 10 7 5 4 4 3 4 5 7 9 9 8 8 9 9 7 6 6 5 5 5 5
2 3 9 9 10 11 10 11 11 11 11 11 12 12 9 7 7 8 10 9 10 9 9 6 3 1 3 3 5 6 8 8 7 7 7 8 5 5 6 5 5 5 5 6
5 11 8 8 8 7 7 7 9 9 9 10 9 9 6 7 9 9 10 9 6 8 3 4 2 3 4 4 5 7 6 6 7 5 5 6 8 7 5 7 5 6 4 4
5 8 5 8 5 6 9 10 10 10 9 4 4 0 5 8 9 8 10 8 7 3 1 2 4 5 5 5 5 5 6 6 5 5 5 5 6 7 10 8 4 6 6 5
6 7 9 10 8 10 8 11 9 9 8 8 10 10 14 13 11 10 9 4 4 5 4 4 5 6 6 5 5 6 8 8 6 5 6 6 5 5 7 7 10 10 11 11
7 7 4 11 6 9 11 13 15 16 15 14 16 15 12 11 9 5 4 6 6 6 5 6 7 8 6 5 6 8 9 6 7 7 7 6 6 6 5 7 7 7 12 12
11 9 7 8 11 10 10 12 15 14 13 12 11 10 8 6 6 5 6 7 6 6 7 8 9 8 6 8 9 9 8 7 7 7 7 7 7 8 8 8 8 7 6 6
6 9 11 13 12 11 12 14 12 9 8 6 6 5 5 4 6 7 7 6 5 7 8 6 6 9 10 9 9 8 8 7 6 7 8 9 8 8 8 8 8 8 7 8
3 7 10 12 12 12 11 8 7 5 5 3 4 4 6 6 5 7 7 4 5 7 8 8 12 11 9 10 10 8 7 7 6 8 7 7 6 8 8 8 8 9 8 6
12 12 12 11 10 9 7 6 4 1 5 7 5 3 3 3 5 5 5 5 6 8 10 11 11 12 12 11 10 9 8 8 8 8 8 7 9 10 9 10 11 10 9 8
12 12 10 8 6 5 5 5 4 3 3 3 4 4 3 4 5 5 5 6 8 9 10 4 6 8 11 10 8 9 9 9 8 9 8 9 8 9 9 9 10 10 9 8
9 8 7 7 7 5 5 3 3 4 6 5 4 4 5 4 3 5 5 9 12 10 11 12 11 10 12 12 8 9 8 9 10 9 8 9 8 8 8 10 10 9 8 8
6 6 5 5 4 4 4 3 4 6 7 4 5 7 8 9 7 6 8 9 11 6 9 10 10 10 9 10 9 8 9 9 9 10 9 9 7 8 8 8 8 8 8 8
4 4 4 4 5 8 8 8 8 8 9 9 8 8 10 10 11 10 8 10 10 11 12 11 11 13 10 11 10 10 9 9 8 8 9 9 8 8 6 5 5 5 5 6
4 5 7 8 8 7 8 9 9 8 9 9 9 9 9 8 8 9 11 11 11 14 11 12 14 17 17 11 9 9 8 8 6 4 5 7 4 3 4 5 5 5 6 7
9 10 9 7 7 7 8 10 9 8 8 8 7 8 10 10 8 9 11 14 18 17 14 14 14 18 18 10 9 9 7 4 3 4 5 7 5 5 6 7 7 7 8 10
9 9 7 6 6 6 8 10 9 8 9 9 10 10 12 10 10 11 11 12 18 17 14 16 17 15 8 9 9 8 3 6 6 4 4 5 5 5 6 6 7 8 8 9
7 5 5 8 6 6 6 6 7 7 9 9 9 10 10 10 11 12 12 15 14 15 11 11 11 11 10 10 9 9 8 9 8 5 6 6 6 6 7 8 9 9 9 10
7 7 5 4 5 5 6 6 7 8 8 9 10 9 10 10 11 11 13 11 11 10 10 9 9 11 9 9 9 9 8 7 9 8 7 7 7 7 8 9 9 10 10 10
Wind_Direction
159 100 216 257 223 200 213 230 230 274 252 275 253 236 224 197 194 195 190 186 187 185 183 183 183 181 184 169 167 183 214 244 262 259 264 289 300 318 321 304 289 287 298 299
206 201 251 257 240 230 230 245 256 267 271 274 254 257 202 198 195 199 197 195 191 194 191 191 184 190 177 170 184 194 224 253 265 260 269 283 299 313 307 296 291 284 277 290
230 5 268 281 239 223 223 224 243 251 269 159 210 228 225 210 206 207 203 199 199 198 197 193 190 190 183 182 184 206 238 261 264 260 263 282 291 298 309 304 296 292 286 275
106 205 226 38 107 325 244 257 240 260 255 273 291 277 272 220 210 212 209 207 204 201 198 193 193 189 186 187 196 220 242 265 269 265 271 283 284 290 305 294 297 294 295 261
183 215 318 271 187 203 207 286 294 254 273 255 241 264 242 220 220 222 215 212 206 201 195 190 184 185 191 200 220 235 253 271 282 285 280 288 287 284 293 290 288 287 283 249
151 221 246 57 73 133 228 267 34 279 270 200 193 248 289 182 211 216 214 206 198 189 175 178 182 174 200 206 218 243 274 286 289 289 291 290 287 279 285 276 275 272 249 242
177 242 281 330 128 176 239 28 24 262 214 191 213 257 4 321 217 214 206 200 187 177 176 172 168 177 188 189 228 276 276 282 291 296 297 293 286 279 277 264 263 250 227 216
133 209 268 155 143 229 13 346 295 281 265 247 252 289 282 271 244 213 193 181 175 161 143 131 144 185 177 223 277 270 284 291 294 302 299 292 287 283 259 253 248 218 211 233
222 258 109 194 276 324 307 292 294 292 303 270 262 258 249 237 193 179 173 157 136 129 120 116 132 177 240 301 269 276 285 291 299 300 298 304 295 269 244 240 239 227 223 246
242 176 240 247 259 270 274 271 288 289 282 284 270 276 249 224 176 160 141 140 117 117 109 92 107 299 284 292 277 286 288 291 298 306 335 304 285 251 251 241 241 234 248 279
249 277 273 259 247 270 289 288 284 288 287 296 295 283 240 185 158 131 116 106 91 92 116 189 222 299 295 280 289 285 283 285 290 299 300 304 296 281 252 266 241 235 264 286
257 313 298 301 350 333 301 314 331 321 312 341 310 133 138 122 121 112 90 66 68 87 248 266 277 277 278 285 273 268 271 275 292 308 311 295 283 275 222 247 197 233 255 246
293 321 305 307 323 17 2 9 18 29 41 62 61 92 111 103 87 69 58 69 238 257 247 251 262 270 277 279 255 250 267 278 285 277 284 292 290 275 273 199 216 228 233 233
359 324 282 41 22 35 61 68 70 70 72 78 85 80 72 67 77 115 187 238 248 241 252 262 265 272 277 252 244 254 264 256 275 279 287 290 282 257 250 261 249 231 219 234
19 30 53 65 62 66 82 85 83 82 82 76 73 84 99 129 185 228 253 240 243 250 251 249 259 271 263 247 256 270 277 279 290 296 285 278 276 270 268 269 251 253 259 213
54 67 72 74 74 75 86 91 90 85 84 98 123 165 192 240 255 250 238 222 230 254 262 258 250 261 258 252 261 270 272 247 255 286 285 280 265 265 266 243 239 246 251 264
187 80 88 89 90 88 86 93 101 124 162 198 254 264 272 292 303 278 264 252 254 260 259 246 252 259 255 249 259 260 267 266 253 267 280 271 265 269 264 260 252 255 254 237
85 90 97 112 120 124 125 131 139 46 357 354 360 336 308 268 271 291 281 273 270 269 258 253 250 253 253 258 255 256 265 270 272 266 270 270 270 270 266 261 253 245 249 251
95 105 111 100 88 82 44 31 17 327 325 343 342 331 311 283 281 288 300 290 281 275 289 264 261 247 256 255 249 255 261 261 262 265 262 265 261 266 264 259 258 248 241 247
96 86 77 68 53 38 41 29 346 16 16 3 337 324 318 305 295 294 289 283 281 280 294 294 288 275 265 260 231 250 248 248 253 260 259 259 263 264 261 260 256 252 240 233
93 85 85 71 65 60 44 28 15 24 9 14 7 347 328 318 315 302 296 297 308 300 296 293 280 284 278 259 244 237 243 249 258 266 265 259 256 254 254 257 259 255 248 250
77 79 71 65 63 64 43 34 32 25 18 11 6 357 346 334 333 322 307 285 317 343 321 309 299 292 284 275 262 257 242 238 256 268 273 257 249 259 263 269 276 279 279 277
75 70 67 54 52 54 48 30 22 18 9 359 352 345 336 327 322 320 316 331 318 309 304 303 297 291 286 274 265 259 239 239 255 318 3 331 296 282 299 303 309 308 301 298
82 72 70 63 58 44 26 15 2 9 0 340 352 341 333 332 325 321 323 313 312 310 303 297 292 285 283 275 265 249 226 126 49 358 360 359 351 343 339 334 324 320 314 311
85 79 65 55 45 32 15 4 348 356 350 346 344 340 344 336 322 322 326 321 320 320 313 331 360 358 9 11 11 10 29 83 56 29 21 11 356 344 334 329 319 317 311 302
78 72 77 56 40 24 9 354 343 347 345 341 339 341 337 330 329 332 327 340 345 353 360 359 9 3 17 23 31 28 12 27 34 24 28 16 355 340 335 329 319 315 311 307
74 44 51 52 35 14 6 353 344 343 344 345 334 339 342 345 341 353 351 352 354 357 3 7 12 14 15 19 20 23 23 24 33 11 8 8 352 340 332 323 316 311 307 304